Location: Gollag?dem
(16.8053°N, 80.8024°E)
Time: 09:17:19
(UTC+00:00)

Palapa 6 Rocket - Pass Details

Date: 13 August 2020
Orbit: 485 x 1217 km, 22.7° (Epoch: 18 September)

Event Time Altitude Azimuth Distance (km) Brightness Sun altitude
Rises 14:53:03 0° 285° (WNW) 3,880 8.4 -25.6°
Reaches altitude 10° 14:55:43 10° 285° (WNW) 2,999 7.5 -26.1°
Maximum altitude 15:03:25 82° 199° (SSW) 1,213 4.3 -27.8°
Enters shadow 15:04:56 62° 124° (SE) 1,337 4.3 -28.1°
